DateTimeUTC,F1_A11,F1_S11,BsB_S11,BsG_S11,BsR_S11,BbsB_S11,BbsG_S11,BbsR_S11,BaB_A11,BaG_A11,BaR_A11,Tu_S11,T_S11,Uu_S11,U_S11,P_S11,T1_A11
2021-08-07T21:00:00Z,00000200,20000000,,,,,,,0000.19,-000.06,0000.03,18.9,25.9,03.7,02.4,0665.8,31.1
2021-08-07T21:01:00Z,00000200,20000000,,,,,,,-000.09,0000.18,0000.23,18.9,25.9,03.7,02.4,0665.8,31.1
2021-08-07T21:02:00Z,00000200,20000000,,,,,,,-000.27,-000.01,0000.16,18.9,25.9,03.7,02.4,0665.8,31.1
2021-08-07T21:03:00Z,00000200,60000000,,,,,,,0000.69,-000.08,-000.17,18.9,25.9,03.7,02.4,0665.8,31.1
2021-08-07T21:04:00Z,00000200,40000000,0002.12,0001.61,0000.52,0000.44,0000.32,0000.05,0000.09,0000.62,0000.33,19.0,25.6,03.7,02.4,0666.7,31.1
2021-08-07T21:05:00Z,00000200,00000000,0002.34,0001.84,0000.99,0000.80,-000.01,0000.53,0000.42,0000.32,0000.43,19.0,25.6,03.7,02.5,0666.8,31.1
2021-08-07T21:06:00Z,00000200,00000000,0002.00,0001.74,0000.97,0001.25,0000.40,0000.13,0000.37,0000.63,0000.22,19.0,25.6,03.6,02.4,0666.8,31.1
2021-08-07T21:07:00Z,00000200,00000000,0002.10,0002.03,0001.03,0000.73,0000.14,0000.39,0000.59,0000.37,0000.29,19.0,25.5,03.8,02.5,0666.8,31.1
2021-08-07T21:08:00Z,00000200,00000000,0002.01,0001.96,0001.10,0000.44,0000.38,0000.22,0000.64,0000.29,0000.46,19.0,25.5,03.7,02.5,0666.8,31.1
2021-08-07T21:09:00Z,00000200,00010000,0002.40,0001.74,0000.79,0000.69,0000.15,0000.70,0000.33,0000.34,0000.35,19.0,25.5,03.8,02.5,0666.8,31.1
2021-08-07T21:10:00Z,00000200,00000000,0002.30,0001.82,0000.87,0000.55,0000.01,0000.68,0000.65,0000.59,0000.26,19.0,25.6,03.8,02.5,0666.8,31.1
2021-08-07T21:11:00Z,00000200,00000000,0002.66,0001.90,0000.52,0000.64,0000.15,0000.17,0000.31,0000.43,0000.65,19.0,25.5,03.8,02.6,0666.7,31.1
2021-08-07T21:12:00Z,00000200,00000000,0001.99,0001.60,0000.71,0000.33,0000.12,0000.58,0000.67,0000.25,0000.39,19.0,25.5,03.8,02.5,0666.7,31.1
2021-08-07T21:13:00Z,00000200,00000000,0002.66,0001.58,0001.44,0000.09,0000.15,0000.43,0000.06,0000.24,0000.59,19.0,25.5,03.8,02.5,0666.8,31.1
2021-08-07T21:14:00Z,00000200,00000000,0002.16,0001.73,0000.99,0000.58,0000.27,-000.06,0000.86,0001.01,0000.07,19.0,25.5,03.9,02.6,0666.8,31.1
2021-08-07T21:15:00Z,00000200,00000000,0002.23,0002.05,0001.17,0000.98,0000.20,0000.28,0000.64,0000.22,0000.24,19.0,25.5,03.9,02.6,0666.7,31.1
2021-08-07T21:16:00Z,00000200,00000000,0002.42,0001.68,0000.77,0001.15,0000.30,-000.07,0000.75,0000.60,0000.85,19.0,25.5,03.9,02.6,0666.7,31.1
2021-08-07T21:17:00Z,00000200,00000000,0002.14,0001.81,0000.93,0000.18,0000.28,0000.35,0000.04,0000.50,-000.15,19.0,25.5,04.0,02.7,0666.8,31.1
2021-08-07T21:18:00Z,00000200,00000000,0001.62,0001.49,0000.67,0000.06,0000.25,-000.02,0000.20,0000.12,0000.31,19.0,25.5,03.9,02.6,0666.7,31.1
2021-08-07T21:19:00Z,00000200,00000000,0002.59,0001.78,0000.84,-000.02,0000.36,0000.29,0000.94,0000.87,0000.53,19.0,25.4,04.0,02.7,0666.8,31.1
2021-08-07T21:20:00Z,00000200,00000000,0002.79,0001.50,0000.74,0000.42,0000.47,-000.05,0000.41,0000.13,0000.09,19.0,25.4,04.0,02.7,0666.7,31.1
2021-08-07T21:21:00Z,00000200,00000000,0001.86,0001.86,0000.95,0000.68,0000.54,0000.26,0000.39,0000.76,0000.40,19.0,25.4,04.0,02.7,0666.8,31.1
2021-08-07T21:22:00Z,00000200,00000000,0002.54,0001.58,0000.91,-000.18,0000.09,0000.25,0000.32,0000.27,0000.64,19.0,25.4,04.0,02.7,0666.8,31.1
2021-08-07T21:23:00Z,00000200,00000000,0001.76,0001.66,0000.99,0000.37,0000.19,0000.30,0000.70,0000.29,-000.33,19.0,25.4,03.9,02.6,0666.8,31.1
2021-08-07T21:24:00Z,00000200,00000000,0001.96,0001.71,0000.95,0000.39,0000.47,0000.13,0000.14,0000.61,0000.75,19.0,25.5,03.9,02.6,0666.8,31.1
2021-08-07T21:25:00Z,00000200,00000000,0001.99,0001.87,0000.68,0000.49,-000.23,0000.18,0000.49,0000.24,-000.06,19.1,25.5,03.9,02.6,0666.8,31.1
2021-08-07T21:26:00Z,00000200,00000000,0002.04,0001.42,0001.04,-000.22,0000.12,0000.56,0000.68,0000.51,0000.63,19.1,25.5,03.9,02.6,0666.8,31.1
2021-08-07T21:27:00Z,00000200,00000000,0001.66,0001.62,0000.91,0000.29,0000.12,0000.36,0000.40,0000.04,0000.04,19.1,25.5,04.0,02.7,0666.8,31.1
2021-08-07T21:28:00Z,00000200,00000000,0002.86,0001.71,0001.06,0000.22,0000.29,0000.08,0000.63,0000.56,0000.37,19.1,25.6,03.9,02.6,0666.8,31.1
2021-08-07T21:29:00Z,00000200,00000000,0002.41,0001.73,0000.85,0000.80,0000.36,0000.13,0000.45,0000.62,0000.84,19.1,25.5,03.9,02.6,0666.8,31.1
2021-08-07T21:30:00Z,00000200,00000000,0002.27,0002.06,0000.76,0000.18,0000.27,0000.36,0000.45,0000.36,-000.00,19.1,25.5,03.9,02.6,0666.8,31.1
2021-08-07T21:31:00Z,00000200,00000000,0002.09,0001.55,0000.92,0000.24,0000.14,0000.50,0000.64,0000.75,0000.39,19.1,25.5,03.8,02.6,0666.8,31.1
2021-08-07T21:32:00Z,00000200,00000000,0001.88,0001.99,0000.89,0000.12,0000.58,0000.10,0000.30,0000.18,0000.20,19.1,25.5,03.8,02.6,0666.8,31.1
2021-08-07T21:33:00Z,00000200,00000000,0002.28,0001.82,0000.88,0000.28,0000.31,-000.07,0000.25,0000.22,0000.36,19.1,25.5,03.9,02.6,0666.8,31.1
2021-08-07T21:34:00Z,00000200,00000000,0001.47,0001.96,0000.76,0000.70,0000.27,0000.14,0000.80,0000.81,0000.61,19.1,25.5,03.9,02.6,0666.8,31.1
2021-08-07T21:35:00Z,00000200,00000000,0001.83,0001.72,0001.02,0000.53,0000.19,0000.29,0000.27,0000.49,0000.22,19.0,25.5,03.9,02.6,0666.8,31.1
2021-08-07T21:36:00Z,00000200,00000000,0003.06,0001.76,0001.12,0000.29,0000.31,0000.33,0000.58,0000.43,0000.71,19.0,25.5,04.0,02.7,0666.8,31.1
2021-08-07T21:37:00Z,00000200,00000000,0002.40,0001.65,0001.17,0000.54,-000.10,0000.25,0000.60,0000.51,-000.25,19.0,25.4,04.1,02.7,0666.8,31.1
2021-08-07T21:38:00Z,00000200,00000000,0001.75,0001.79,0001.33,0000.71,0000.24,-000.01,0000.70,0000.68,0001.19,19.0,25.4,04.1,02.8,0666.8,31.1
2021-08-07T21:39:00Z,00000200,00000000,0001.83,0001.57,0000.82,0000.18,0000.32,0000.16,0000.34,0000.49,0000.07,19.0,25.4,04.2,02.8,0666.8,31.1
2021-08-07T21:40:00Z,00000200,00000000,0002.12,0001.84,0001.47,0000.51,0000.15,0000.26,0000.84,0000.28,0000.70,19.0,25.4,04.2,02.9,0666.8,31.1
2021-08-07T21:41:00Z,00000200,00000000,0002.65,0001.28,0001.13,0000.18,0000.13,0000.37,0000.66,0000.51,0000.11,19.0,25.4,04.2,02.8,0666.8,31.1
2021-08-07T21:42:00Z,00000200,00000000,0002.41,0001.76,0001.13,0000.51,0000.04,0000.30,0000.33,0000.77,0000.92,19.0,25.4,04.2,02.8,0666.7,31.1
2021-08-07T21:43:00Z,00000200,00000000,0001.42,0002.00,0000.90,0000.52,0000.38,0000.08,0000.77,0000.46,0000.04,18.9,25.4,04.3,02.9,0666.8,31.1
2021-08-07T21:44:00Z,00000200,00000000,0002.05,0002.15,0000.89,0000.97,0000.17,0000.31,0000.66,0000.58,0000.63,18.9,25.4,04.4,03.0,0666.8,31.1
2021-08-07T21:45:00Z,00000200,00000000,0002.00,0002.09,0001.21,0000.56,0000.13,0000.40,0000.48,0000.64,0000.17,18.9,25.4,04.4,03.0,0666.8,31.1
2021-08-07T21:46:00Z,00000200,00000000,0001.93,0001.76,0001.18,-000.15,0000.11,0000.14,0000.48,0000.34,0000.42,18.9,25.4,04.3,02.9,0666.8,31.1
2021-08-07T21:47:00Z,00000200,00000000,0001.23,0001.89,0001.12,-000.41,0000.27,0000.47,0000.38,0000.44,0000.36,18.9,25.3,04.4,03.0,0666.8,31.0
2021-08-07T21:48:00Z,00000200,00000000,0003.25,0001.70,0001.60,0000.05,0000.22,0000.26,0000.53,0000.65,0000.61,18.9,25.3,04.4,03.0,0666.8,31.1
2021-08-07T21:49:00Z,00000200,00000000,0002.16,0001.92,0000.81,0000.38,0000.34,-000.26,0000.70,0000.32,0000.27,18.9,25.3,04.4,03.0,0666.8,31.1
2021-08-07T21:50:00Z,00000200,00000000,0001.96,0001.81,0001.20,-000.25,0000.34,0000.40,0000.09,0000.80,-000.10,18.9,25.3,04.5,03.0,0666.7,31.1
2021-08-07T21:51:00Z,00000200,00000000,0001.75,0001.80,0000.94,0000.66,0000.32,0000.05,0000.98,0000.12,0000.73,18.9,25.3,04.4,03.0,0666.8,31.1
2021-08-07T21:52:00Z,00000200,00000000,0002.36,0001.61,0001.24,0000.30,0000.23,0000.00,0000.06,0000.17,0000.03,18.9,25.3,04.6,03.1,0666.7,31.1
2021-08-07T21:53:00Z,00000200,00000000,0002.18,0001.91,0001.02,0000.29,0000.22,0000.09,0000.90,0000.96,0000.60,18.9,25.3,04.6,03.1,0666.7,31.1
2021-08-07T21:54:00Z,00000200,00000000,0002.56,0001.54,0000.91,0000.22,0000.10,0000.08,0000.88,0000.70,0000.82,18.9,25.3,04.5,03.0,0666.7,31.1
2021-08-07T21:55:00Z,00000200,00000000,0001.52,0001.84,0000.91,0000.22,0000.01,0000.16,0000.25,0000.70,0000.30,19.0,25.4,04.5,03.1,0666.7,31.1
2021-08-07T21:56:00Z,00000200,00000000,0001.76,0002.12,0001.06,0000.47,-000.04,0000.33,0000.62,0000.28,0000.29,19.0,25.4,04.5,03.1,0666.7,31.1
2021-08-07T21:57:00Z,00000200,40000000,,,,,,,0000.07,-000.26,-000.14,19.1,25.4,04.4,03.0,0666.7,31.1
2021-08-07T21:58:00Z,00000200,60000000,,,,,,,-000.13,0000.34,-000.02,18.8,25.6,04.3,02.8,0665.8,31.1
2021-08-07T21:59:00Z,00000200,20000000,,,,,,,-000.14,-000.25,0000.04,18.8,25.7,04.3,02.8,0665.8,31.1
